This is the latest recevied weather packets stored in our database for station/object K0BL. If no packets are shown the sender has not sent any weather packets the latest 10 day(s).
| Time | Temp. | Humidity | Pressure | Rain* | Wind** | Luminosity | Snow |
|---|---|---|---|---|---|---|---|
| 1777582592 | 14.44° C | 56% | 1012.9 hPa | 0 mm | - | 624 W/m² | - |
| 1777581692 | 14.44° C | 57% | 1012.8 hPa | 0 mm | - | 669 W/m² | - |
| 1777581392 | 14.44° C | 58% | 1012.8 hPa | 0 mm | - | 686 W/m² | - |
| 1777578087 | 15° C | 68% | 1012.9 hPa | 0 mm | - | 186 W/m² | - |
| 1777576888 | 15.56° C | 63% | 1012.7 hPa | 0 mm | - | 284 W/m² | - |
| 1777576284 | 16.11° C | 61% | 1012.6 hPa | 0 mm | - | 286 W/m² | - |
| 1777575685 | 15.56° C | 62% | 1012.4 hPa | 0 mm | - | 368 W/m² | - |
| 1777574785 | 16.11° C | 62% | 1012.6 hPa | 0 mm | - | 940 W/m² | - |
| 1777574485 | 15.56° C | 62% | 1012.7 hPa | 0 mm | - | 899 W/m² | - |
| 1777573581 | 15° C | 66% | 1012.8 hPa | 0 mm | - | 894 W/m² | - |
| 1777573281 | 15° C | 66% | 1012.9 hPa | 0 mm | - | 905 W/m² | - |
| 1777572680 | 14.44° C | 68% | 1013.1 hPa | 0 mm | - | 916 W/m² | - |
| 1777572380 | 14.44° C | 69% | 1013.2 hPa | 0 mm | - | 937 W/m² | - |
| 1777571477 | 14.44° C | 69% | 1013.4 hPa | 0 mm | - | 152 W/m² | - |
| 1777569378 | 13.33° C | 74% | 1013.7 hPa | 0 mm | - | 162 W/m² | - |
| 1777568478 | 13.33° C | 75% | 1013.8 hPa | 0 mm | - | 199 W/m² | - |
| 1777567571 | 12.78° C | 77% | 1013.8 hPa | 0 mm | - | 495 W/m² | - |
| 1777566046 | 12.22° C | 85% | 1013.9 hPa | 0 mm | - | 977 W/m² | - |
| 1777565140 | 10.56° C | 88% | 1014 hPa | 0 mm | - | 340 W/m² | - |
| 1777563622 | 10.56° C | 90% | 1014.6 hPa | 0.51 mm | - | 207 W/m² | - |
| 1777561819 | 9.44° C | 90% | 1015.2 hPa | 0.76 mm | - | 193 W/m² | - |
| 1777561516 | 8.89° C | 92% | 1015.3 hPa | 0.76 mm | - | 175 W/m² | - |
| 1777560913 | 8.89° C | 92% | 1015.5 hPa | 0.76 mm | - | 131 W/m² | - |
| 1777557598 | 8.89° C | 85% | 1015.2 hPa | 0 mm | - | 31 W/m² | - |
| 1777556696 | 8.89° C | 85% | 1015.2 hPa | 0 mm | - | 30 W/m² | - |
* Rain latest hour (hover to see other rain measurements)
** Current wind speed in m/s (hover to see current wind gust speed)